Regional Weather Roundup
Issued by NWS Raleigh/Durham, NC

Home | Current Version | Previous Version | Text Only | Print | Product List | Glossary On
Versions: 1 2 3 4 5 6 7 8 9 10 11 12 13 14 15 16 17 18 19 20 21 22 23 24 25 26 27 28 29 30 31 32 33 34 35 36 37 38 39 40 41 42 43 44 45 46 47 48 49 50
631
ASUS42 KRAH 112210
RWRRAH
NORTH CAROLINA WEATHER ROUNDUP
NATIONAL WEATHER SERVICE RALEIGH NC
500 PM EST THU FEB 11 2016

NOTE: "FAIR" INDICATES FEW OR NO CLOUDS BELOW 12,000 FEET WITH NO
SIGNIFICANT WEATHER AND/OR OBSTRUCTIONS TO VISIBILITY.

NCZ001-053-055-056-065-067-112300-
WESTERN NORTH CAROLINA

CITY           SKY/WX    TMP DP  RH WIND       PRES   REMARKS
ASHEVILLE      SUNNY     38  17  42 NW14      30.11R WCI  30
JEFFERSON      SUNNY     27  10  48 W16G24    30.04R WCI  15
MORGANTON      SUNNY     43  15  33 W9        30.16R
HICKORY        SUNNY     43  16  33 W9        30.11R
RUTHERFORDTON  SUNNY     46  19  33 W7        30.12R
MOUNT AIRY     SUNNY     38   1  21 NW9       30.14R WCI  31
BOONE          SUNNY     27  15  59 W13G21    30.06R WCI  16
$$

NCZ021-022-025-041-071-084-088-112300-
CENTRAL NORTH CAROLINA

CITY           SKY/WX    TMP DP  RH WIND       PRES   REMARKS
CHARLOTTE      MOSUNNY   47  17  30 W3        30.14R
GREENSBORO     PTCLDY    39  10  30 W6        30.13R WCI  35
WINSTON-SALEM  CLEAR     40  11  30 NW6       30.14R
RALEIGH-DURHAM PTCLDY    40   9  28 NW6       30.17R
FORT BRAGG     CLEAR     44  13  28 W7        30.16
FAYETTEVILLE   CLEAR     45  14  28 NW8       30.16R
BURLINGTON     CLEAR     39  10  30 W10       30.15R WCI  32
LAURINBURG     CLEAR     47  15  27 NW7       30.17R
$$

NCZ011-015-027-028-043-044-047-080-103-112300-
NORTHEASTERN NORTH CAROLINA

CITY           SKY/WX    TMP DP  RH WIND       PRES   REMARKS
ROCKY MT-WILSO CLEAR     39   5  24 W12       30.18R WCI  32
GREENVILLE     CLEAR     39   5  24 NW6       30.19R WCI  35
WASHINGTON     CLEAR     38   7  27 NW8       30.19R WCI  32
ELIZABETH CITY CLEAR     35   8  32 W10       30.18R WCI  27
MANTEO         CLEAR     35  10  34 NW7G16    30.18R WCI  29
CAPE HATTERAS  CLEAR     38  13  35 W8G17     30.18R WCI  32
$$

NCZ078-087-090-091-093-098-101-112300-
SOUTHEASTERN NORTH CAROLINA

CITY           SKY/WX    TMP DP  RH WIND       PRES   REMARKS
LUMBERTON      CLEAR     46  19  34 W5        30.17R
GOLDSBORO      CLEAR     41   9  26 NW8       30.16R
KINSTON        CLEAR     41   9  26 W6        30.19R
KENANSVILLE    CLEAR     42  13  30 CALM      30.18S
NEW BERN       CLEAR     41  10  28 W9G17     30.20R
CHERRY POINT   CLEAR     41  11  29 NW13      30.19R
BEAUFORT       CLEAR     41  13  31 NW13      30.19R
JACKSONVILLE   CLEAR     43  13  29 W13       30.18R
WILMINGTON     CLEAR     47  17  30 NW6       30.18R
$$





USA.gov is the U.S. government's official web portal to all federal, state and local government web resources and services.